FW6924 Weather Reports


Display with metric or nautical units.
time (UTC)temp
F
wind
direction
speed
MPH
gust
MPH
rain 1hr
in
rain 24hr
in
rain mn
in
humidity
%
barometer
mb
20260502215000 82 209 4.0 10.0 0.00 0.00 0.00 78 1009.1
20260502214002 82 234 6.0 13.0 0.00 0.00 0.00 76 1009.3
20260502212002 84 287 6.0 12.0 0.00 0.00 0.00 74 1009.4
20260502211000 84 247 7.0 13.0 0.00 0.00 0.00 73 1009.0
20260502210005 84 239 5.0 12.0 0.00 0.00 0.00 70 1008.7
20260502205000 84 232 6.0 12.0 0.00 0.00 0.00 68 1008.7
20260502204002 85 236 7.0 11.0 0.00 0.00 0.00 66 1008.7
20260502203000 85 237 7.0 12.0 0.00 0.00 0.00 65 1008.8
20260502202002 86 248 8.0 15.0 0.00 0.00 0.00 63 1008.8
20260502201000 86 242 10.0 16.0 0.00 0.00 0.00 63 1009.0
20260502200004 86 200 9.0 16.0 0.00 0.00 0.00 66 1008.8
20260502195000 87 211 8.0 14.0 0.00 0.00 0.00 66 1008.8
20260502194009 87 263 9.0 17.0 0.00 0.00 0.00 66 1008.8
20260502193000 87 219 10.0 18.0 0.00 0.00 0.00 65 1008.9
20260502192002 87 196 9.0 17.0 0.00 0.00 0.00 65 1008.9
20260502191000 87 257 9.0 16.0 0.00 0.00 0.00 66 1009.4
20260502190005 88 212 10.0 18.0 0.00 0.00 0.00 67 1009.4
20260502185000 88 215 9.0 16.0 0.00 0.00 0.00 66 1009.6
20260502184002 87 252 9.0 16.0 0.00 0.00 0.00 67 1009.8
20260502182002 86 267 9.0 18.0 0.00 0.00 0.00 70 1010.1
20260502164000 86 211 10.0 23.0 0.00 0.00 0.00 72 1010.2
20260502163002 86 244 11.0 20.0 0.00 0.00 0.00 71 1010.3
20260502162000 86 172 9.0 19.0 0.00 0.00 0.00 73 1010.1
20260502161001 86 205 9.0 17.0 0.00 0.00 0.00 74 1010.1
20260502152002 84 225 9.0 18.0 0.00 0.00 0.00 76 1009.9
20260502150959 84 176 10.0 17.0 0.00 0.00 0.00 77 1010.0
20260502122959 74 206 1.0 7.0 0.00 0.00 0.00 93 1009.1
20260502122006 73 177 1.0 5.0 0.00 0.00 0.00 93 1009.1
20260502121000 72 193 2.0 7.0 0.00 0.00 0.00 94 1009.1
20260502114001 70 163 1.0 3.0 0.00 0.00 0.00 94 1009.0
20260502112001 69 133 1.0 4.0 0.00 0.00 0.00 94 1008.9
20260502111000 69 197 1.0 3.0 0.00 0.00 0.00 93 1009.0
20260502110004 69 145 1.0 3.0 0.00 0.00 0.00 94 1009.0
20260502104959 68 146 1.0 4.0 0.00 0.00 0.00 94 1008.9
20260502104001 68 153 1.0 5.0 0.00 0.00 0.00 94 1008.9
20260502102959 68 163 0.0 4.0 0.00 0.00 0.00 93 1008.8
20260502102001 68 136 0.0 0.0 0.00 0.00 0.00 94 1009.0
20260502091000 67 189 0.0 3.0 0.00 0.00 0.00 94 1009.5
20260502071000 68 270 0.0 0.0 0.00 0.00 0.00 93 1009.2
20260502070001 68 270 0.0 0.0 0.00 0.00 0.00 93 1009.2
20260502064001 67 270 0.0 0.0 0.00 0.00 0.00 92 1009.3
20260502061958 67 270 0.0 0.0 0.00 0.00 0.00 91 1009.6
20260502060001 68 270 0.0 0.0 0.00 0.00 0.00 90 1009.7
20260502055000 68 270 0.0 0.0 0.00 0.00 0.00 90 1009.6
20260502053958 68 270 0.0 0.0 0.00 0.00 0.00 90 1009.8
20260502053001 68 270 0.0 0.0 0.00 0.00 0.00 90 1010.0
20260502051958 69 270 0.0 0.0 0.00 0.00 0.00 89 1010.2
20260502051000 69 270 0.0 0.0 0.00 0.00 0.00 89 1010.3
20260502050002 69 270 0.0 0.0 0.00 0.00 0.00 88 1010.3
20260502045002 69 270 0.0 0.0 0.00 0.00 0.00 88 1010.3
20260502044000 70 270 0.0 0.0 0.00 0.00 0.00 86 1010.3
20260502043003 70 270 0.0 0.0 0.00 0.00 0.00 86 1010.3
20260502042000 70 270 0.0 0.0 0.00 0.00 0.00 86 1010.2
20260502040005 71 270 0.0 0.0 0.00 0.00 0.00 84 1010.3
20260502035000 72 270 0.0 0.0 0.00 0.00 0.00 84 1010.3
20260502034000 72 270 0.0 0.0 0.00 0.00 0.00 84 1010.1
20260502033000 72 270 0.0 0.0 0.00 0.00 0.00 85 1010.3
20260502031000 73 270 0.0 0.0 0.00 0.00 0.00 84 1010.4
20260502030004 73 270 0.0 0.0 0.00 0.00 0.00 83 1010.3
20260502025000 73 270 0.0 2.0 0.00 0.00 0.00 83 1010.3
20260502024003 73 270 0.0 2.0 0.00 0.00 0.00 82 1010.3
20260502022002 74 267 0.0 0.0 0.00 0.00 0.00 80 1010.5
20260502021000 74 267 0.0 0.0 0.00 0.00 0.00 79 1010.3
20260502020007 74 267 0.0 0.0 0.00 0.00 0.00 78 1010.2
20260502015000 75 267 0.0 0.0 0.00 0.00 0.00 78 1010.2
20260502014002 75 267 0.0 0.0 0.00 0.00 0.00 77 1010.0
20260502012002 76 267 1.0 3.0 0.00 0.00 0.00 76 1009.8
20260502011000 76 267 2.0 5.0 0.00 0.00 0.00 75 1009.7
20260502010005 76 271 2.0 7.0 0.00 0.00 0.00 74 1009.8
20260502005000 77 267 1.0 6.0 0.00 0.00 0.00 73 1009.7
20260502004002 77 252 2.0 6.0 0.00 0.00 0.00 73 1009.5
20260502003000 78 254 2.0 5.0 0.00 0.00 0.00 72 1009.3
20260502002002 78 245 3.0 5.0 0.00 0.00 0.00 71 1009.2
20260502001000 79 261 4.0 8.0 0.00 0.00 0.00 70 1009.2
20260502000004 79 254 4.0 8.0 0.00 0.00 0.00 68 1009.2
20260501234000 81 227 4.0 11.0 0.00 0.00 0.00 65 1008.8
20260501233000 81 234 4.0 9.0 0.00 0.00 0.00 65 1008.7
20260501231000 82 229 5.0 9.0 0.00 0.00 0.00 63 1008.4
20260501222000 84 194 5.0 10.0 0.00 0.00 0.00 61 1008.2
20260501221002 84 219 5.0 9.0 0.00 0.00 0.00 61 1008.3
20260501220002 84 198 5.0 9.0 0.00 0.00 0.00 60 1008.3